Weather History for Douglas, WY

Change the Weather History Date:

Tuesday, November 27, 2012

  Actual Average Record
Temperature  
Mean Temperature 26 °F 28 °F  
Max Temperature 45 °F 41 °F 61 °F (2009)
Min Temperature 7 °F 15 °F 5 °F (2001)
Degree Days  
Heating Degree Days 39 37  
Month to date heating degree days 662 842  
Since 1 July heating degree days 1432 1709  
Cooling Degree Days 0 0  
Month to date cooling degree days 0 0  
Year to date cooling degree days 831 486  
Moisture  
Dew Point 16 °F    
Average Humidity 69    
Maximum Humidity 96    
Minimum Humidity 41    
Precipitation  
Precipitation 0.00 in 0.02 in 0.04 in (2005)
Month to date precipitation 0.18 0.61  
Year to date precipitation 5.26 12.95  
Sea Level Pressure  
Sea Level Pressure 30.21 in    
Wind  
Wind Speed 3 mph (NW)    
Max Wind Speed 17 mph    
Max Gust Speed 22 mph    
Visibility 7 miles    
Events Fog    
T = Trace of Precipitation, MM = Missing Value Source: NWS Daily Summary

Daily Weather History Graph

Daily Weather History Graph

Search for Another Location

Airport:

Trip Planner

Search our weather history database for the weather conditions in past years. The results will help you decide how hot, cold, wet, or windy it might be!

Date:

Astronomy

Nov. 27, 2012 Rise Set
Actual Time 7:08 AM MST 4:29 PM MST
Civil Twilight 6:37 AM MST 5:01 PM MST
Nautical Twilight 6:02 AM MST 5:36 PM MST
Astronomical Twilight 5:28 AM MST 6:10 PM MST
Moon 4:03 PM MST (11/27) 6:15 AM MST (11/27)
Length of Visible Light 10h 24m
Length of Day
9h 21m
Waxing Gibbous, 99% of the Moon is Illuminated
Nov 27
Waxing Gibbous
Nov 28
Full
Dec 6
Last Quarter
Dec 13
New
Dec 19
First Quarter

Hourly Weather History & Observations

Time (MST) Temp. Windchill Dew Point Humidity Pressure Visibility Wind Dir Wind Speed Gust Speed Precip Events Conditions
12:53 AM 12.9 °F - 9.0 °F 84% 30.28 in 0.2 mi Calm Calm - N/A Fog Light Freezing Fog
1:53 AM 12.0 °F - 9.0 °F 88% 30.27 in 0.2 mi Calm Calm - N/A Fog Light Freezing Fog
2:53 AM 10.0 °F - 6.1 °F 84% 30.27 in 0.2 mi Calm Calm - N/A Fog Light Freezing Fog
3:19 AM 8.6 °F - 3.2 °F 79% 30.09 in 2.0 mi Calm Calm - N/A   Haze
3:27 AM 8.6 °F - 3.2 °F 79% 30.09 in 1.0 mi Calm Calm - N/A   Haze
3:35 AM - - - N/A% 30.09 in 0.5 mi Calm Calm - N/A Fog Fog
3:48 AM 8.6 °F - 3.2 °F 79% 30.09 in 1.2 mi Calm Calm - N/A   Haze
3:53 AM 8.1 °F - 3.0 °F 80% 30.27 in 5.0 mi Calm Calm - N/A   Haze
4:53 AM 8.1 °F - 3.0 °F 80% 30.26 in 10.0 mi Calm Calm - N/A   Clear
5:53 AM - - - N/A% 30.07 in 10.0 mi Calm Calm - N/A   Clear
6:53 AM - - - N/A% 30.08 in 10.0 mi Calm Calm - N/A   Clear
7:53 AM - - - N/A% 30.10 in 10.0 mi Calm Calm - N/A   Clear
8:53 AM 15.1 °F - 10.9 °F 84% 30.30 in 9.0 mi Calm Calm - N/A   Clear
9:53 AM 21.9 °F - 19.9 °F 92% 30.30 in 7.0 mi Calm Calm - N/A   Clear
10:53 AM 28.9 °F - 25.0 °F 85% 30.27 in 10.0 mi Calm Calm - N/A   Clear
11:53 AM 37.0 °F - 26.1 °F 65% 30.22 in 10.0 mi Calm Calm - N/A   Clear
12:53 PM 43.0 °F 37.2 °F 27.0 °F 53% 30.19 in 10.0 mi NNW 10.4 mph - N/A   Clear
1:53 PM 45.0 °F 37.9 °F 26.1 °F 48% 30.19 in 10.0 mi NNW 16.1 mph - N/A   Clear
2:53 PM 44.1 °F 37.4 °F 23.0 °F 43% 30.22 in 10.0 mi NW 13.8 mph - N/A   Clear
3:53 PM 43.0 °F 37.2 °F 24.1 °F 47% 30.25 in 10.0 mi NW 10.4 mph - N/A   Clear
4:53 PM 36.0 °F 33.3 °F 24.1 °F 62% 30.29 in 10.0 mi West 3.5 mph - N/A   Clear
5:53 PM 32.0 °F - 23.0 °F 69% 30.15 in 10.0 mi Calm Calm - N/A   Clear
6:53 PM 30.0 °F 23.2 °F 24.1 °F 79% 30.17 in 10.0 mi East 6.9 mph - N/A   Clear
7:53 PM 27.0 °F 21.6 °F 21.9 °F 81% 30.18 in 10.0 mi ESE 4.6 mph - N/A   Clear
8:53 PM 30.0 °F - 21.9 °F 72% 30.32 in 10.0 mi Calm Calm - N/A   Clear
9:53 PM 26.1 °F 20.5 °F 21.0 °F 81% 30.31 in 10.0 mi South 4.6 mph - N/A   Clear
10:53 PM 23.0 °F - 19.0 °F 85% 30.29 in 10.0 mi Calm Calm - N/A   Clear
11:53 PM 21.9 °F - 18.0 °F 85% 30.25 in 10.0 mi Calm Calm - N/A   Clear